Wind_Speed
31 33 34 35 40 44 46 49 51 52 52 57 60 61 61 61 63 64 63 62 60 59 56 54 52 50 49 48 46 45 44 43 43 42 42 41 40 39 38 37 36 35 35 34
28 29 31 34 37 42 46 48 48 50 51 55 59 62 61 60 62 64 63 63 61 59 58 56 54 52 51 49 47 46 44 43 42 41 41 41 41 41 40 39 38 36 35 34
26 26 31 33 35 37 42 46 46 47 50 52 55 61 63 61 61 63 64 64 63 60 58 57 56 54 52 50 48 46 45 43 43 42 42 42 42 41 40 38 37 36 36 35
23 24 28 32 33 36 38 42 43 44 47 50 52 57 61 60 61 63 63 64 64 61 59 58 57 55 53 51 48 46 45 44 43 43 43 42 41 39 38 38 38 37 36 36
22 23 26 29 31 33 36 40 42 43 45 48 50 54 57 59 60 61 62 62 62 62 60 58 57 55 53 52 50 48 46 45 44 44 43 42 41 40 40 40 38 37 37 36
21 22 25 28 30 31 32 37 42 44 45 49 48 51 55 54 56 57 60 60 61 61 61 59 57 57 55 53 52 50 48 46 45 44 44 43 41 41 40 39 38 38 37 36
20 21 23 26 28 30 31 33 37 41 45 46 45 49 52 48 50 53 56 58 59 59 60 59 59 58 56 55 53 51 49 47 45 44 44 43 42 42 40 40 39 38 37 36
19 18 21 23 26 29 30 32 35 37 41 42 43 47 47 44 46 51 54 56 57 58 59 58 58 58 57 55 53 52 50 48 46 45 43 43 43 42 41 41 40 39 38 37
18 16 19 22 23 27 29 31 33 33 35 39 42 45 45 43 44 46 51 54 56 57 58 58 57 57 57 55 54 52 50 49 47 45 44 43 43 42 42 41 40 40 39 39
17 17 17 21 22 24 27 29 32 33 32 33 39 43 43 41 41 44 47 51 53 54 56 57 57 57 57 56 54 53 51 50 48 47 45 44 43 43 42 42 41 40 40 40
17 17 17 20 22 23 25 29 32 33 33 32 35 39 41 40 41 42 44 46 48 51 54 56 56 57 57 56 55 54 52 50 50 48 47 45 45 44 43 42 41 40 40 40
17 17 17 19 21 24 26 29 32 33 33 33 35 35 37 40 40 40 42 45 46 48 51 54 55 55 56 56 56 55 53 52 50 49 48 47 46 45 45 43 42 41 41 41
17 17 16 17 20 24 28 30 32 33 33 33 36 37 35 37 39 39 41 43 45 47 49 51 53 54 55 55 55 55 54 52 51 50 49 47 47 46 44 44 43 42 42 41
18 18 17 18 19 24 27 31 33 34 35 35 36 35 35 36 38 38 39 41 44 47 48 50 51 53 54 54 54 54 54 53 52 51 50 49 47 46 45 44 44 43 43 42
19 19 19 18 19 22 26 29 32 34 36 37 37 36 35 36 38 39 39 40 41 45 48 49 50 52 53 53 54 54 53 53 52 51 50 49 48 46 45 44 44 43 43 42
20 20 20 19 20 21 24 27 28 32 35 37 37 36 37 37 39 41 40 40 40 43 46 48 49 51 52 52 53 53 53 52 52 51 50 50 49 48 47 45 45 44 43 42
19 19 20 20 19 19 22 24 27 30 34 37 37 35 37 38 40 43 42 41 41 42 44 46 48 49 50 51 51 51 52 52 52 51 50 50 49 49 48 46 45 44 43 43
19 20 20 20 21 21 19 22 24 27 31 35 36 35 36 37 40 43 43 42 42 42 43 45 46 47 48 50 50 50 51 52 52 51 50 49 49 49 48 47 45 45 44 43
18 19 20 21 21 21 19 20 23 26 29 33 35 35 35 37 39 42 43 42 43 44 45 46 46 46 48 49 50 50 50 51 52 51 51 50 50 49 48 47 46 45 44 43
17 18 20 21 21 21 20 20 22 26 29 32 34 35 35 38 40 41 41 42 42 44 44 46 46 46 47 47 48 49 50 50 51 51 50 50 50 49 48 47 46 46 45 43
18 18 19 20 21 21 20 20 22 25 28 31 33 35 36 38 40 40 41 41 42 42 43 44 45 46 47 47 47 48 49 49 50 50 50 50 49 48 47 46 45 45 45 43
18 19 19 21 22 21 22 22 23 24 28 31 33 34 35 37 39 40 41 41 41 41 42 43 44 45 46 46 47 47 49 49 49 48 49 49 48 47 46 45 44 44 43 42
19 20 21 22 22 22 23 24 24 26 28 30 33 34 35 37 38 40 41 42 42 42 42 42 44 44 45 46 46 47 48 49 49 48 48 48 48 47 46 45 44 42 41 41
19 20 22 22 21 22 24 25 25 25 27 29 31 33 35 37 38 39 41 42 43 44 43 43 44 44 46 46 45 44 46 48 49 47 46 46 46 46 45 43 43 42 41 40
18 20 21 21 21 22 24 26 26 26 27 28 30 32 35 37 39 40 41 42 43 43 44 44 44 44 45 46 45 44 44 45 46 47 47 46 45 44 44 43 42 41 40 39
18 20 21 21 22 23 23 25 27 28 28 28 30 31 33 36 39 40 41 42 43 45 45 45 45 45 45 45 45 45 44 44 44 45 46 46 45 45 44 43 42 40 39 38
Wind_Direction
256 249 245 242 239 235 232 230 229 226 225 226 226 225 223 221 221 220 220 221 221 221 221 222 221 221 221 221 221 221 221 222 223 224 225 226 227 229 231 232 233 235 236 237
258 250 244 240 238 234 230 228 227 226 226 227 227 225 223 220 221 220 219 220 220 221 220 220 220 220 220 221 221 222 222 222 223 224 225 226 226 227 229 231 233 234 236 237
262 252 243 238 234 233 230 228 226 227 225 227 228 227 223 220 220 220 219 218 219 220 220 220 221 220 220 221 222 222 223 223 223 224 225 226 226 227 229 232 234 234 235 236
264 253 244 237 234 232 229 228 227 226 226 227 227 228 223 221 220 220 218 218 218 219 219 220 221 221 221 221 222 223 223 223 223 224 225 227 228 228 230 232 233 233 235 236
266 255 245 238 233 234 231 228 227 225 225 227 226 228 222 221 221 220 219 218 219 219 219 220 220 221 221 221 222 222 222 223 223 224 225 227 228 228 229 230 232 233 235 236
266 257 249 239 235 234 230 228 228 225 225 226 223 228 225 221 220 219 219 219 219 220 220 220 220 220 220 221 221 222 222 223 224 225 225 226 227 229 230 231 233 234 235 237
265 255 248 241 235 229 227 226 227 226 226 226 222 227 225 220 220 219 219 219 220 220 220 220 221 221 220 221 221 222 223 224 225 226 226 226 227 228 229 231 233 234 235 237
268 251 242 239 234 228 226 225 225 228 229 227 225 227 222 219 218 218 218 218 218 219 219 219 220 221 221 221 222 223 224 225 225 226 226 227 227 228 229 231 233 234 236 237
271 253 244 239 235 229 225 223 221 225 229 231 229 225 222 218 217 216 217 217 217 218 219 219 219 220 221 221 222 223 224 225 226 227 227 227 228 228 229 232 233 234 236 238
273 257 243 238 234 230 227 223 220 222 227 230 226 223 222 219 218 217 216 216 216 217 218 219 219 219 220 221 222 222 223 225 226 227 227 227 228 229 230 232 234 235 237 239
274 263 244 238 232 228 227 222 222 225 228 228 224 222 220 219 219 218 216 215 214 215 217 218 219 219 220 220 221 222 223 224 225 226 227 227 227 229 230 232 235 236 238 240
273 265 251 241 232 229 228 223 221 226 228 226 224 219 222 219 216 217 216 215 214 214 215 216 217 218 219 220 221 222 223 224 224 226 227 227 228 229 231 233 235 237 240 241
274 266 253 241 234 230 228 224 223 225 226 225 223 218 217 219 216 216 215 215 215 214 215 215 217 218 219 220 221 222 222 223 224 224 225 227 228 229 231 233 235 237 239 242
272 263 254 246 239 233 229 226 224 224 224 221 218 216 216 217 216 215 215 216 216 215 215 215 216 218 219 220 221 222 223 223 224 225 225 227 229 230 231 232 235 237 240 242
270 262 254 248 243 236 232 228 226 226 224 221 217 216 212 214 215 213 213 213 214 215 217 216 215 216 219 220 220 221 223 224 225 225 226 227 228 230 232 233 235 238 240 242
270 262 254 249 243 239 235 232 230 229 226 223 219 216 213 212 212 212 211 211 212 214 215 216 216 216 217 219 219 220 222 223 225 226 226 227 228 230 231 233 236 237 239 241
270 265 255 249 245 242 237 234 234 230 227 224 221 217 216 214 212 212 211 210 211 213 214 216 217 217 218 218 218 219 221 222 224 225 226 228 229 230 230 232 235 237 239 241
272 265 258 251 247 247 239 236 235 232 229 225 223 221 218 215 213 213 212 211 210 212 214 215 216 216 217 218 219 219 219 221 222 224 225 227 229 230 231 232 234 236 238 240
274 262 256 250 248 245 240 235 233 233 229 225 224 222 219 217 215 214 213 211 211 213 215 215 216 216 215 216 217 218 219 220 222 223 225 227 228 229 231 232 233 235 237 239
274 263 255 252 250 249 241 237 235 233 230 226 224 223 221 218 217 216 216 216 213 214 215 216 216 217 216 215 217 218 218 220 221 223 224 226 227 229 230 233 234 236 237 239
269 264 258 254 253 251 245 241 236 233 228 227 225 223 222 221 219 219 218 217 215 215 216 216 216 216 217 216 217 219 219 220 220 221 223 224 226 228 230 232 234 236 238 240
270 266 260 254 254 253 246 243 240 237 231 229 227 226 225 223 221 221 221 220 218 218 217 216 215 215 217 217 217 219 220 219 219 221 222 223 224 226 228 230 233 235 237 239
272 269 264 258 256 252 247 246 244 241 237 232 230 229 227 225 223 223 224 223 221 220 218 218 216 217 217 217 218 219 220 219 220 221 221 222 223 225 227 230 232 234 237 239
272 269 267 263 259 252 248 245 245 244 239 234 232 229 228 226 224 225 225 224 223 222 221 219 218 218 219 218 218 218 219 219 220 220 221 222 223 225 227 229 231 234 236 238
273 269 268 265 261 256 251 246 244 242 239 236 233 230 229 227 225 225 225 225 224 224 224 221 219 219 218 218 217 217 217 218 219 220 221 222 223 225 227 229 231 233 234 237
272 271 269 267 262 259 254 249 245 243 241 239 236 233 229 228 226 225 225 225 225 224 223 222 220 219 218 219 218 218 218 218 219 220 222 222 224 226 228 229 230 231 233 235
Height
5529 5533 5536 5539 5541 5546 5551 5556 5563 5573 5580 5584 5591 5601 5612 5623 5631 5641 5651 5661 5671 5681 5692 5699 5707 5715 5722 5729 5736 5743 5749 5755 5760 5766 5772 5778 5783 5788 5792 5796 5799 5802 5805 5808
5522 5525 5528 5529 5531 5535 5540 5545 5553 5561 5568 5573 5579 5587 5598 5608 5618 5629 5640 5650 5660 5670 5679 5688 5697 5705 5713 5721 5728 5735 5741 5747 5753 5759 5765 5770 5775 5779 5784 5788 5792 5796 5799 5802
5514 5518 5518 5519 5523 5526 5530 5536 5544 5550 5557 5561 5567 5574 5585 5596 5606 5616 5627 5638 5649 5659 5669 5679 5688 5696 5704 5712 5720 5727 5734 5740 5746 5751 5756 5761 5766 5771 5777 5782 5786 5789 5792 5795
5507 5510 5509 5511 5515 5517 5522 5529 5534 5540 5545 5551 5557 5562 5575 5585 5594 5605 5617 5628 5639 5650 5660 5669 5678 5687 5696 5705 5712 5719 5726 5732 5737 5743 5748 5754 5760 5766 5771 5774 5778 5781 5785 5788
5501 5502 5502 5504 5508 5510 5515 5520 5525 5530 5535 5540 5546 5552 5563 5573 5583 5595 5608 5620 5630 5641 5650 5659 5669 5678 5687 5695 5702 5710 5717 5723 5729 5735 5741 5746 5752 5757 5761 5765 5770 5774 5778 5781
5495 5495 5495 5498 5501 5504 5508 5512 5516 5521 5525 5530 5539 5543 5552 5565 5577 5590 5601 5611 5621 5631 5640 5650 5658 5667 5676 5684 5692 5700 5707 5714 5720 5726 5732 5738 5744 5749 5753 5758 5763 5767 5771 5774
5490 5490 5490 5491 5494 5497 5501 5506 5510 5513 5516 5523 5533 5535 5546 5561 5571 5581 5591 5601 5610 5620 5630 5639 5648 5657 5666 5674 5683 5691 5698 5705 5712 5718 5724 5730 5736 5740 5746 5750 5755 5759 5763 5767
5484 5485 5485 5485 5488 5491 5495 5499 5504 5509 5513 5520 5524 5529 5543 5554 5561 5569 5579 5588 5598 5608 5618 5628 5638 5647 5656 5665 5673 5681 5689 5697 5703 5709 5716 5722 5727 5732 5737 5742 5747 5751 5756 5759
5478 5480 5481 5481 5483 5486 5489 5493 5499 5504 5508 5513 5517 5526 5536 5544 5552 5560 5569 5578 5588 5598 5608 5618 5627 5636 5645 5654 5663 5672 5680 5687 5694 5701 5707 5713 5718 5724 5729 5734 5739 5743 5747 5751
5473 5475 5477 5477 5479 5481 5485 5489 5493 5497 5501 5506 5512 5520 5528 5537 5545 5553 5561 5570 5579 5588 5597 5607 5616 5625 5634 5644 5653 5661 5670 5677 5684 5691 5697 5704 5710 5715 5720 5725 5730 5735 5738 5742
5469 5470 5472 5473 5474 5476 5480 5484 5487 5492 5496 5501 5507 5516 5522 5529 5537 5544 5552 5560 5569 5578 5587 5597 5606 5615 5624 5633 5642 5651 5659 5667 5674 5681 5687 5694 5700 5706 5711 5716 5721 5726 5729 5733
5465 5466 5467 5468 5470 5472 5474 5478 5482 5486 5490 5495 5500 5512 5514 5521 5528 5535 5543 5551 5560 5568 5577 5586 5595 5604 5613 5622 5631 5640 5648 5656 5664 5671 5678 5684 5690 5696 5702 5707 5712 5717 5720 5724
5461 5461 5462 5464 5467 5468 5469 5471 5475 5479 5483 5488 5494 5504 5508 5513 5520 5527 5535 5543 5551 5559 5567 5576 5585 5594 5602 5612 5621 5630 5638 5646 5654 5661 5668 5674 5680 5687 5693 5698 5703 5708 5711 5715
5456 5456 5458 5459 5459 5461 5463 5466 5469 5472 5476 5481 5487 5495 5502 5507 5513 5520 5527 5534 5542 5550 5558 5566 5575 5584 5593 5602 5610 5619 5628 5636 5643 5650 5657 5664 5671 5677 5683 5688 5693 5698 5702 5706
5450 5451 5452 5453 5453 5455 5457 5460 5463 5466 5470 5475 5481 5487 5494 5500 5505 5512 5519 5526 5533 5541 5549 5557 5566 5575 5583 5592 5600 5609 5617 5625 5633 5640 5647 5655 5661 5667 5672 5678 5683 5688 5692 5696
5445 5446 5446 5448 5448 5449 5451 5454 5457 5460 5464 5468 5474 5480 5486 5491 5497 5504 5511 5518 5525 5533 5541 5549 5557 5565 5573 5582 5590 5599 5607 5615 5622 5630 5637 5644 5650 5656 5662 5668 5673 5678 5683 5686
5441 5440 5441 5442 5442 5443 5446 5448 5450 5453 5457 5462 5467 5474 5478 5483 5489 5495 5502 5510 5517 5525 5532 5540 5548 5556 5564 5572 5580 5588 5596 5604 5612 5619 5626 5633 5639 5645 5652 5657 5663 5668 5672 5676
5436 5435 5435 5436 5438 5438 5442 5442 5444 5447 5450 5454 5459 5465 5470 5475 5481 5488 5494 5502 5509 5516 5523 5531 5538 5546 5554 5562 5570 5578 5586 5593 5601 5609 5616 5623 5629 5635 5641 5647 5653 5658 5662 5666
5430 5430 5430 5430 5431 5432 5435 5436 5438 5440 5444 5448 5452 5457 5462 5468 5474 5480 5487 5493 5500 5507 5514 5521 5529 5536 5543 5551 5559 5567 5575 5583 5591 5598 5605 5612 5619 5625 5631 5637 5643 5648 5652 5656
5425 5424 5425 5425 5425 5426 5429 5430 5431 5435 5437 5442 5445 5450 5455 5460 5466 5473 5479 5485 5492 5498 5505 5512 5520 5527 5534 5541 5549 5557 5565 5573 5580 5588 5595 5602 5609 5615 5621 5627 5632 5637 5642 5646
5420 5419 5419 5419 5419 5420 5423 5424 5425 5429 5431 5434 5437 5442 5447 5452 5459 5465 5470 5476 5483 5490 5496 5503 5510 5518 5525 5532 5539 5547 5555 5563 5570 5578 5585 5592 5599 5605 5611 5617 5622 5627 5632 5636
5414 5414 5413 5413 5413 5417 5416 5417 5419 5420 5422 5425 5430 5435 5439 5444 5450 5456 5462 5468 5475 5481 5487 5494 5501 5508 5516 5523 5530 5538 5545 5553 5560 5568 5575 5582 5589 5595 5601 5607 5612 5617 5622 5626
5409 5408 5407 5407 5409 5409 5409 5410 5411 5413 5415 5418 5422 5427 5432 5437 5442 5448 5453 5459 5466 5472 5479 5485 5492 5499 5507 5514 5521 5528 5536 5543 5551 5558 5565 5572 5579 5585 5591 5597 5603 5607 5612 5617
5403 5402 5400 5400 5401 5402 5402 5403 5405 5406 5408 5411 5414 5419 5423 5428 5434 5439 5445 5451 5457 5463 5470 5476 5483 5491 5498 5505 5512 5519 5526 5533 5541 5549 5556 5563 5569 5576 5582 5587 5593 5598 5603 5607
5397 5395 5394 5394 5395 5394 5395 5396 5398 5399 5401 5403 5406 5410 5415 5420 5425 5431 5436 5442 5448 5454 5461 5468 5474 5482 5489 5496 5503 5510 5517 5524 5532 5539 5546 5553 5560 5566 5572 5578 5583 5588 5593 5598
5390 5388 5387 5387 5388 5387 5388 5389 5390 5392 5394 5396 5399 5402 5406 5410 5416 5421 5427 5433 5439 5445 5452 5458 5466 5472 5479 5487 5494 5501 5508 5515 5523 5530 5537 5544 5550 5557 5563 5569 5574 5579 5584 5588